DW3589 Weather Reports


time (UTC)temp
C
wind
direction
speed
KPH
gust
KPH
rain 1hr
cm
rain 24hr
cm
rain mn
cm
humidity
%
barometer
mb
20260508084019 18 0.0 0.0 0.00 0.00 0.00 69 1014.2
20260508083019 17 0.0 0.0 0.00 0.00 0.00 72 1014.3
20260508082020 17 0.0 0.0 0.00 0.00 0.00 72 1014.2
20260508081020 17 0.0 0.0 0.00 0.00 0.00 73 1014.3
20260508080019 17 0.0 0.0 0.00 0.00 0.00 75 1014.3
20260508075020 16 0.0 0.0 0.00 0.00 0.00 76 1014.2
20260508074020 16 0.0 0.0 0.00 0.00 0.00 78 1014.1
20260508073020 16 0.0 0.0 0.00 0.00 0.00 80 1014.1
20260508072020 16 0.0 0.0 0.00 0.00 0.00 80 1014.0
20260508071019 15 0.0 0.0 0.00 0.00 0.00 82 1014.0
20260508070019 15 0.0 0.0 0.00 0.00 0.00 84 1013.9
20260508065018 14 0.0 0.0 0.00 0.00 0.00 86 1013.8
20260508064019 13 0.0 0.0 0.00 0.00 0.00 86 1013.9
20260508063019 13 0.0 0.0 0.00 0.00 0.00 86 1013.9
20260508062020 13 0.0 0.0 0.00 0.00 0.00 86 1013.9
20260508061040 -17 0.0 0.0 0.00 0.00 0.00
20260508060040 -17 0.0 0.0 0.00 0.00 0.00
20260508055535 -17 0.0 0.0 0.00 0.00 0.00
20260508055109 -17 0.0 0.0 0.00 0.00 0.00
20260508054517 -17 0.0 0.0 0.00 0.00 0.00
20260508053558 -17 0.0 0.0 0.00 0.00 0.00
20260508053013 -17 0.0 0.0 0.00 0.00 0.00
20260508052609 -17 0.0 0.0 0.00 0.00 0.00
20260508052017 -17 0.0 0.0 0.00 0.00 0.00
20260508051038 -17 0.0 0.0 0.00 0.00 0.00
20260508050526 13 0.0 0.0 0.00 0.00 0.00 84 1013.0
20260508050113 13 0.0 0.0 0.00 0.00 0.00 84 1012.9
20260508045518 13 0.0 0.0 0.00 0.00 0.00 84 1012.8
20260508044518 13 0.0 0.0 0.00 0.00 0.00 84 1012.7
20260508043518 13 0.0 0.0 0.00 0.00 0.00 84 1012.5
20260508042518 13 0.0 0.0 0.00 0.00 0.00 83 1012.5
20260508041518 14 0.0 0.0 0.00 0.00 0.00 83 1012.7
20260508040517 14 0.0 0.0 0.00 0.00 0.00 83 1012.3
20260508035518 14 0.0 0.0 0.00 0.00 0.00 84 1012.6
20260508034517 14 0.0 0.0 0.00 0.00 0.00 83 1012.6
20260508033518 14 0.0 0.0 0.00 0.00 0.00 83 1012.8
20260508032518 14 0.0 0.0 0.00 0.00 0.00 82 1012.8
20260508031518 14 0.0 0.0 0.00 0.00 0.00 82 1012.9
20260508030518 14 0.0 0.0 0.00 0.00 0.00 83 1013.0
20260508025518 14 0.0 0.0 0.00 0.00 0.00 83 1013.1
20260508024518 14 0.0 0.0 0.00 0.00 0.00 83 1013.1
20260508023518 14 0.0 0.0 0.00 0.00 0.00 84 1013.1
20260508022518 14 0.0 0.0 0.00 0.00 0.00 84 1013.1
20260508021518 13 0.0 0.0 0.00 0.00 0.00 84 1013.4
20260508020518 13 0.0 0.0 0.00 0.00 0.00 84 1013.2
20260508015539 13 0.0 0.0 0.00 0.00 0.00 84 1013.2
20260508014518 13 0.0 0.0 0.00 0.00 0.00 84 1013.2
20260508013518 13 0.0 0.0 0.00 0.00 0.00 85 1013.2
20260508012518 13 0.0 0.0 0.00 0.00 0.00 85 1013.5
20260508011518 14 0.0 0.0 0.00 0.00 0.00 85 1013.4
20260508010538 14 0.0 0.0 0.00 0.00 0.00 85 1013.6
20260508005518 14 0.0 0.0 0.00 0.00 0.00 85 1013.6
20260508004518 14 0.0 0.0 0.00 0.00 0.00 85 1013.5
20260508003518 14 0.0 0.0 0.00 0.00 0.00 84 1013.7
20260508002518 14 0.0 0.0 0.00 0.00 0.00 84 1013.5
20260508001518 14 0.0 0.0 0.00 0.00 0.00 83 1013.7
20260508000518 15 0.0 0.0 0.00 0.00 0.00 83 1013.6
20260507235518 15 0.0 0.0 0.00 0.00 0.00 82 1013.5
20260507234518 15 0.0 0.0 0.00 0.00 0.00 82 1013.6
20260507233519 15 0.0 0.0 0.00 0.00 0.00 82 1013.7
20260507232518 15 0.0 0.0 0.00 0.00 0.00 81 1013.8
20260507231518 15 0.0 0.0 0.00 0.00 0.00 81 1013.8
20260507230538 15 0.0 0.0 0.00 0.00 0.00 82 1013.8
20260507225519 15 0.0 0.0 0.00 0.00 0.00 81 1014.1
20260507224518 15 0.0 0.0 0.00 0.00 0.00 81 1014.3
20260507223518 15 0.0 0.0 0.00 0.00 0.00 80 1014.4
20260507222518 15 0.0 0.0 0.00 0.00 0.00 79 1014.4
20260507221518 15 0.0 0.0 0.00 0.00 0.00 79 1014.4
20260507220518 15 0.0 0.0 0.00 0.00 0.00 79 1014.3
20260507215519 15 0.0 0.0 0.00 0.00 0.00 79 1014.3
20260507214519 15 0.0 0.0 0.00 0.00 0.00 79 1014.3
20260507213519 15 0.0 0.0 0.00 0.00 0.00 78 1014.5
20260507212519 15 0.0 0.0 0.00 0.00 0.00 78 1014.5
20260507211519 15 0.0 0.0 0.00 0.00 0.00 77 1014.5
20260507210519 15 0.0 0.0 0.00 0.00 0.00 76 1014.4
20260507205519 16 0.0 0.0 0.00 0.00 0.00 76 1014.2
20260507204519 16 0.0 0.0 0.00 0.00 0.00 75 1014.1
20260507203519 16 0.0 0.0 0.00 0.00 0.00 74 1014.0
20260507202519 16 0.0 0.0 0.00 0.00 0.00 74 1013.8
20260507201539 16 0.0 0.0 0.00 0.00 0.00 73 1013.7
20260507200519 16 0.0 0.0 0.00 0.00 0.00 72 1013.5
20260507195519 16 0.0 0.0 0.00 0.00 0.00 72 1013.5
20260507194600 16 0.0 0.0 0.00 0.00 0.00 71 1013.4
20260507193540 17 0.0 0.0 0.00 0.00 0.00 70 1013.4
20260507192519 17 0.0 0.0 0.00 0.00 0.00 69 1013.3
20260507191519 17 0.0 0.0 0.00 0.00 0.00 68 1013.1
20260507190519 17 0.0 0.0 0.00 0.00 0.00 67 1013.1
20260507185519 17 0.0 0.0 0.00 0.00 0.00 66 1012.9
20260507184519 18 0.0 0.0 0.00 0.00 0.00 64 1012.7
20260507183520 18 0.0 0.0 0.00 0.00 0.00 61 1012.5
20260507182519 18 0.0 0.0 0.00 0.00 0.00 58 1012.5
20260507181519 19 0.0 0.0 0.00 0.00 0.00 56 1012.4
20260507180519 20 0.0 0.0 0.00 0.00 0.00 55 1012.4
20260507175539 20 0.0 0.0 0.00 0.00 0.00 54
20260507174540 20 0.0 0.0 0.00 0.00 0.00 56
20260507173519 20 0.0 0.0 0.00 0.00 0.00 56
20260507172519 20 0.0 0.0 0.00 0.00 0.00 56 1012.1
20260507171600 20 0.0 0.0 0.00 0.00 0.00 56 1012.0
20260507170519 20 0.0 0.0 0.00 0.00 0.00 56 1011.9
20260507165519 20 0.0 0.0 0.00 0.00 0.00 57 1012.0
20260507164519 20 0.0 0.0 0.00 0.00 0.00 56 1012.0
20260507163519 21 0.0 0.0 0.00 0.00 0.00 57 1011.9
20260507162519 21 0.0 0.0 0.00 0.00 0.00 57 1011.8
20260507161519 21 0.0 0.0 0.00 0.00 0.00 56 1011.8
20260507160519 21 0.0 0.0 0.00 0.00 0.00 56 1011.8
20260507155519 21 0.0 0.0 0.00 0.00 0.00 57 1011.7
20260507154519 21 0.0 0.0 0.00 0.00 0.00 57 1011.8
20260507153519 21 0.0 0.0 0.00 0.00 0.00 57 1011.8
20260507152519 21 0.0 0.0 0.00 0.00 0.00 56 1011.8
20260507151520 20 0.0 0.0 0.00 0.00 0.00 59 1011.8
20260507150520 21 0.0 0.0 0.00 0.00 0.00 57 1011.9
20260507145520 21 0.0 0.0 0.00 0.00 0.00 58 1011.9
20260507144520 21 0.0 0.0 0.00 0.00 0.00 58 1012.0
20260507143520 21 0.0 0.0 0.00 0.00 0.00 57 1012.0
20260507142519 20 0.0 0.0 0.00 0.00 0.00 58 1012.1
20260507141519 20 0.0 0.0 0.00 0.00 0.00 58 1012.3
20260507140600 21 0.0 0.0 0.00 0.00 0.00 56 1012.3
20260507135520 20 0.0 0.0 0.00 0.00 0.00 58 1012.3
20260507134539 21 0.0 0.0 0.00 0.00 0.00 57 1012.3
20260507133520 21 0.0 0.0 0.00 0.00 0.00 58 1012.6
20260507132520 20 0.0 0.0 0.00 0.00 0.00 61 1012.6
20260507131519 20 0.0 0.0 0.00 0.00 0.00 60 1012.6
20260507130540 20 0.0 0.0 0.00 0.00 0.00 60 1012.6
20260507125519 20 0.0 0.0 0.00 0.00 0.00 61 1012.7
20260507124519 20 0.0 0.0 0.00 0.00 0.00 60 1012.8
20260507123520 20 0.0 0.0 0.00 0.00 0.00 60 1013.0
20260507122520 20 0.0 0.0 0.00 0.00 0.00 62 1013.0
20260507121538 20 0.0 0.0 0.00 0.00 0.00 61 1013.1
20260507120520 20 0.0 0.0 0.00 0.00 0.00 61 1013.2
20260507115520 20 0.0 0.0 0.00 0.00 0.00 61 1013.3
20260507114519 19 0.0 0.0 0.00 0.00 0.00 64 1013.3
20260507113517 20 0.0 0.0 0.00 0.00 0.00 64 1013.4
20260507112541 20 0.0 0.0 0.00 0.00 0.00 65 1013.3
20260507111518 20 0.0 0.0 0.00 0.00 0.00 65 1013.3
20260507110520 20 0.0 0.0 0.00 0.00 0.00 63 1013.3
20260507105558 20 0.0 0.0 0.00 0.00 0.00 63 1013.3
20260507104518 20 0.0 0.0 0.00 0.00 0.00 66 1013.4
20260507103518 19 0.0 0.0 0.00 0.00 0.00 71 1013.5
20260507102538 18 0.0 0.0 0.00 0.00 0.00 72 1013.6
20260507101518 18 0.0 0.0 0.00 0.00 0.00 76 1013.5
20260507100518 17 0.0 0.0 0.00 0.00 0.00 74 1013.5
20260507095518 18 0.0 0.0 0.00 0.00 0.00 69 1013.5
20260507094538 18 0.0 0.0 0.00 0.00 0.00 66 1013.4
20260507093518 18 0.0 0.0 0.00 0.00 0.00 66 1013.4
20260507092538 18 0.0 0.0 0.00 0.00 0.00 67 1013.4
20260507091518 18 0.0 0.0 0.00 0.00 0.00 67 1013.3
20260507090518 18 0.0 0.0 0.00 0.00 0.00 67 1013.3
20260507085518 18 0.0 0.0 0.00 0.00 0.00 68 1013.3